www.pogodaiklimat.ru

Погода и климат >> Архив погоды >> Россия >> Хабаровский край >> Аян


АРХИВ ПОГОДЫ в Аяне

Время (UTC), дата Ветер
(напр.,м/с)
 
Видим.   Явления Облачность Т
(С)
Тd
(С)
f
(%)
Тe
(С)
Тes
(С)
Комфортность P
(гПа)
Po
(гПа)
Тmin
(С)
Tmax
(С)
R
(мм)
R24
(мм)
S
(см)
12 12.06 С 3 20 км 10/10 100 м
[St]
+3.2 +1.7 90 -1 -1 1016.9 1015.9
15 12.06 С 2 500 м туман ?/? +3.2 +2.4 94 0 0 1016.5 1015.5
18 12.06 С 2 500 м туман ?/? +3.7 +3.0 95 +1 +1 1016.3 1015.3
21 12.06 С 2 20 км слаб. морось {туман} 10/10 200 м
[St]
+4.3 +3.6 95 +1 +1 1017.0 1016.0 +2.8 0.0
00 13.06 СВ 5 20 км слаб. морось {туман} 10/10 100 м
[St]
+4.7 +3.6 93 -0 -0 1017.5 1016.7
03 13.06 С 3 500 м морось {туман} ?/? +5.0 +4.0 93 +1 +1 1017.7 1017.0
06 13.06 С 3 20 км {морось, туман} 10/10 100 м
[St]
+6.2 +4.3 88 +3 +3 1017.6 1016.9
09 13.06 С 2 20 км 10/10 100 м
[St]
+5.5 +3.7 88 +3 +3 1018.0 1017.2 +6.3 0.4
12 13.06 С 2 20 км 10/10 200 м
[St]
+4.8 +3.3 90 +2 +2 1018.7 1017.9
15 13.06 С 1 20 км 10/10 300 м
[St]
+4.6 +2.9 89 +3 +3 1018.8 1018.0
18 13.06 штиль 0 20 км 10/10 300 м
[St]
+4.3 +2.9 91 +3 +3 1019.4 1018.6
21 13.06 С 2 10 км слаб. морось 10/10 100 м
[St]
+4.9 +3.8 93 +2 +2 1020.1 1019.3 +4.3 0.1
00 14.06 С 2 10 км слаб. морось 10/10 100 м
[St]
+5.4 +4.1 91 +3 +3 1020.9 1020.2
03 14.06 С 1 50 км {морось} 9/3 600 м
[St Ac trans Cc]
+7.4 +3.3 75 +7 +14 1020.8 1020.1
06 14.06 Ю 3 50 км {морось} 8/3 1000 м
[Sc Cc]
+8.8 +4.7 75 +6 +11 1020.4 1019.6
09 14.06 ЮЗ 3 500 м туман ?/? +4.4 +3.6 95 +1 +1 1020.2 1019.5 +9.5 0.0
12 14.06 Ю 2 500 м туман ?/? +3.2 +2.6 96 0 0 1020.8 1020.1
15 14.06 Ю 1 500 м туман ?/? +3.1 +2.4 95 +1 +1 1020.5 1019.7
18 14.06 Ю 2 500 м туман ?/? +2.5 +1.9 96 -1 -1 1020.4 1019.7
21 14.06 штиль 0 20 км {туман} 10/10 200 м
[St]
+2.9 +2.1 94 +2 +2 1020.9 1020.1 +2.4 0.0
00 15.06 ЮВ 1 50 км {туман} 4/0
[Ac trans]
+10.4 +4.6 67 +10 +20 опасность
простуды
1015.5 977.5 +3.6
03 15.06 Ю 3 50 км 8/8 300 м
[St]
+7.4 +3.7 77 +5 +7 1020.8 1020.1
06 15.06 Ю 2 50 км 9/9 300 м
[St]
+6.2 +3.6 83 +4 +5 1020.3 1019.5
09 15.06 Ю 2 20 км 10/10 300 м
[St]
+6.1 +3.7 85 +4 +4 1019.8 1019.1 +7.7
12 15.06 Ю 2 20 км 10/10 300 м
[St]
+5.4 +3.1 85 +3 +3 1019.6 1018.8
15 15.06 ЮЗ 1 20 км 10/10 300 м
[St]
+4.9 +2.8 86 +4 +4 1018.7 1018.0
18 15.06 ЮЗ 1 20 км 10/10 300 м
[St]
+4.4 +2.8 89 +3 +3 1017.8 1017.0
21 15.06 штиль 0 20 км 10/10 300 м
[St]
+4.7 +2.8 87 +4 +4 1017.6 1016.8 +4.2
00 16.06 Ю 2 20 км слаб. дождь 10/10 300 м
[Frnb]
+5.6 +3.4 86 +3 +3 1016.1 1015.3
03 16.06 Ю 4 50 км {дождь} 8/6 300 м
[St Ac lent]
+7.1 +4.0 81 +4 +6 1015.4 1014.7
06 16.06 Ю 4 50 км {дождь} 6/0
[Ac lent Cc]
+8.4 +4.1 74 +5 +9 1014.8 1014.0
09 16.06 Ю 1 50 км 6/0
[Ac lent Cc]
+7.1 +3.7 79 +6 +8 1015.0 1014.2 +8.6 0.0
12 16.06 штиль 0 50 км 3/0
[Ac trans]
+3.7 +2.3 91 +3 +3 1014.8 1014.1
15 16.06 штиль 0 50 км 8/0
[Ac trans]
+2.4 +1.3 92 +1 +1 1013.5 1012.7
18 16.06 СВ 1 50 км 6/0
[Ac trans Ci fib]
+1.6 +0.5 92 -0 -0 1013.1 1012.3
21 16.06 ЮЗ 4 50 км 3/0
[Ac trans Ci fib]
+6.3 +3.5 82 +3 +4 1011.7 1011.0 +1.3
00 17.06 Ю 3 50 км 6/3 300 м
[St Ci]
+7.5 +4.1 79 +5 +11 1011.2 1010.5
03 17.06 ЮЗ 2 50 км ясно +7.0 +4.2 82 +5 +20 опасность
простуды
1011.9 1011.1
06 17.06 С 4 50 км 8/8 600 м
[Sc]
+8.6 +5.1 79 +6 +7 1012.6 1011.9
09 17.06 С 4 10 км ливневой дождь 10/10 200 м
[Cb cap]
+7.0 +5.5 90 +3 +3 1012.9 1012.2 +9.7 0.1
12 17.06 С 1 10 км слаб. ливневой дождь 10/10 200 м
[Cb cap]
+5.4 +3.8 89 +4 +4 1013.1 1012.3
15 17.06 С 2 10 км слаб. ливневой дождь 10/10 300 м
[Cb cap]
+5.8 +3.2 83 +3 +3 1011.2 1010.5
18 17.06 штиль 0 20 км {ливн. осадки} 10/10 300 м
[Frnb]
+4.8 +2.8 87 +4 +4 1009.4 1008.7
21 17.06 Ю 1 50 км 10/10 1000 м
[Sc]
+6.0 +3.5 84 +5 +5 1008.2 1007.4 +4.5 2
00 18.06 Ю 3 50 км 4/4 1000 м
[Sc]
+8.6 +4.3 74 +6 +12 1006.8 1006.1
03 18.06 С 4 50 км 4/3 600 м
[Cu hum Ac cast Cc]
+9.6 +3.5 66 +7 +14 1006.9 1006.1
06 18.06 С 3 50 км 3/1 600 м
[Cu med, cong Ac cast]
+8.3 +4.2 75 +6 +12 1006.9 1006.2
09 18.06 С 1 50 км 10/8 1000 м
[Sc Ac und]
+8.2 +3.8 74 +8 +8 1006.8 1006.0 +9.9
12 18.06 штиль 0 10 км слаб. дождь 10/10 1000 м
[Sc]
+7.5 +4.7 82 +7 +7 1006.5 1005.7
15 18.06 С 2 10 км слаб. дождь 10/10 1000 м
[Sc]
+8.7 +6.7 87 +7 +7 1005.1 1004.4
18 18.06 СЗ 2 10 км слаб. дождь 10/10 1000 м
[Sc]
+8.5 +7.6 94 +6 +6 1005.6 1004.8
21 18.06 С 3
{11}
500 м дождь {туман} туман ?/? +7.8 +7.0 95 +5 +5 1007.1 1006.4 +7.4 8
00 19.06 С 3 2000 м дождь {туман} 10/10 50 м
[Frnb Ns]
+8.2 +7.4 95 +5 +5 1008.2 1007.5
03 19.06 СВ 2 10 км слаб. морось {дождь} 10/10 100 м
[St]
+9.0 +8.1 94 +7 +7 1009.1 1008.4
06 19.06 С 2 20 км {дождь, морось} 10/10 600 м
[Sc]
+11.6 +8.5 81 +10 +10 1009.0 1008.3
09 19.06 СВ 2 10 км слаб. дождь 10/10 300 м
[Frnb]
+10.5 +8.4 87 +9 +9 1010.2 1009.5 +11.8 5

 

Местоположение метеостанции Аян (Хабаровский край, Россия): широта 56.45 долгота 138.10 высота над уровнем моря 8 м.

В архиве по умолчанию представлена погода в Аяне за последнюю неделю. Архивные данные за месяц целиком и за предыдущие месяцы, начиная с января 2011 года, Вы можете получить, выбрав интересующий диапазон дат из раскрывающегося списка и нажав кнопку "Ввод!".


*Определитесь, кто Вы:
робот инопланетянин человек

Внимание! Время в таблицах - всемирное. Для получения местного времени необходимо прибавить поправку, которая равна 10 ч.

Смотрите также архив погоды в соседних городах и на ближайших метеорологических станциях:

Погода в Нелькане (Хабаровский край, Россия) (180 км)
Погода в Большом Шантаре (Хабаровский край, Россия) (184 км)
Погода в Джане (Хабаровский край, Россия) (257 км)
Погода в Чумикане (Хабаровский край, Россия) (261 км)
Погода в Литке (Хабаровский край, Россия) (311 км)
Погода в Удском (Хабаровский край, Россия) (318 км)
Погода в Улье (Хабаровский край, Россия) (342 км)
Погода в Усть-Юдоме (Якутия, Россия) (352 км)
Погода в Ныврово (Сахалинская область, Россия) (369 км)
Погода в Югоренке (Якутия, Россия) (370 км)

Пояснения к столбцам:

Ветер - указаны скорость ветра в м/с - средняя за 10 мин, порывы в срок и между сроками (в фигурных скобках) и направление, откуда дует ветер: С - северный, СВ - северо-восточный, В - восточный, ЮВ - юго-восточный, Ю - южный, ЮЗ - юго-западный, З - западный, СЗ - северо-западный.
Видимость - горизонтальная дальность видимости в метрах или километрах. При видимости от 1 до 10 км при отсутствии осадков обычно наблюдается дымка, при ухудшении видимости до 1 км и менее - туман. В сухую погоду видимость может ухудшаться дымом, пылью или мглою.
Явления - указаны атмосферные явления, наблюдавшиеся в срок или в последний час перед сроком; фигурными скобками обозначены явления, наблюдавшиеся между сроками (за 1-3 часа до срока); квадратными скобками обозначены град или гололедные отложения с указанием их диаметра в мм.
Облачность - указаны через наклонную черту общая и нижняя облачность в баллах и высота нижней границы облаков в метрах; квадратными скобками обозначены формы облаков: Ci - перистые, Cs - перисто-слоистые, Cc - перисто-кучевые, Ac - высококучевые, As - высокослоистые, Sc - слоисто-кучевые, Ns - слоисто-дождевые, Cu - кучевые, Cb - кучево-дождевые. Подробнее классификацию облаков см. в Атласе облаков (PDF).
T - Температура воздуха - температура, измеренная на высоте 2 м над землей.
Td - Температура точки росы - температура, при понижении до которой содержащийся в воздухе водяной пар достигнет насыщения.
f - Относительная влажность воздуха - влажноcть воздуха, измеренная на высоте 2 м над землей.
Te - Эффективная температура - температура, которую ощущает одетый по сезону человек в тени. Характеристика душности погоды. При расчете учитывается влияние влажности воздуха и скорости ветра на теплоощущения человека.
Tes - Эффективная температура на солнце - температура, которую ощущает человек, с поправкой на солнечный нагрев. Характеристика знойности погоды. Зависит от высоты солнца над горизонтом, облачности и скорости ветра. Ночью, в пасмурную погоду, а также при ветре 12 м/с и более поправка равна нулю.
P - Атмосферное давление - приведенное к уровню моря атмосферное давление.
Po - Атмосферное давление - измеренное на уровне метеостанции атмосферное давление.
Tmin - Минимальная температура - минимум температуры воздуха на высоте 2 м над землей.
Tmax - Максимальная температура - максимум температуры воздуха на высоте 2 м над землей.
R - Количество осадков - Количество выпавших осадков за период времени, мм. При наведении курсора мыши на число - период времени, за который выпало указанное количество осадков.
R24 - Количество осадков - Количество выпавших осадков за 24 часа, мм.
S - Снежный покров - Высота снежного покрова, см. При наведении курсора мыши на число - состояние снежного покрова и степень покрытия местности в баллах.